Naples, FL

11:12 PM EDT on April 23, 2018 (GMT -0400)
Naples Municipal

Weather History for KAPF - March, 2012

Change the Weather History Date:

Friday, March 30, 2012

  Actual Average Record
Temperature  
Mean Temperature 73 °F 71 °F  
Max Temperature 84 °F 81 °F 88 °F (2008)
Min Temperature 62 °F 61 °F 42 °F (1955)
Degree Days  
Heating Degree Days 0 0  
Month to date heating degree days 2 19  
Since 1 July heating degree days 121 252  
Cooling Degree Days 8 7  
Month to date cooling degree days 259 166  
Year to date cooling degree days 533 357  
Growing Degree Days 22 (Base 50)    
Moisture  
Dew Point 61 °F    
Average Humidity 66    
Maximum Humidity 84    
Minimum Humidity 47    
Precipitation  
Precipitation 0.00 in 0.10 in 1.48 in (1958)
Month to date precipitation 1.00 2.28  
Year to date precipitation 4.38 6.23  
Snow  
Snow 0.00 in - - ()
Month to date snowfall 0.0  
Since 1 July snowfall 0.0  
Snow Depth 0.00 in    
Sea Level Pressure  
Sea Level Pressure 30.02 in    
Wind  
Wind Speed 8 mph (SE)    
Max Wind Speed 20 mph    
Max Gust Speed 24 mph    
Visibility 10 miles    
Events      
T = Trace of Precipitation, MM = Missing Value Source: NWS Daily Summary

Daily Weather History Graph

Daily Weather History Graph

Search for Another Location

Airport or City:

Astronomy

Mar. 30, 2012 Rise Set
Actual Time 7:19 AM EDT 7:43 PM EDT
Civil Twilight 6:56 AM EDT 8:06 PM EDT
Nautical Twilight 6:29 AM EDT 8:33 PM EDT
Astronomical Twilight 6:02 AM EDT 9:01 PM EDT
Moon 12:49 PM EDT (3/30) 1:52 AM EDT (3/30)
Length of Visible Light 13h 09m
Length of Day
12h 23m
Waxing Crescent, 49% of the Moon is Illuminated
Mar 30
Waxing Crescent
Mar 30
First Quarter
Apr 6
Full
Apr 13
Last Quarter
Apr 21
New

Hourly Weather History & Observations

Time (EDT) Temp. Heat Index Dew Point Humidity Pressure Visibility Wind Dir Wind Speed Gust Speed Precip Events Conditions
12:53 AM 69.1 °F - 59.0 °F 70% 30.02 in 10.0 mi ESE 8.1 mph - N/A   Clear
1:53 AM 66.9 °F - 57.9 °F 73% 30.01 in 10.0 mi SE 4.6 mph - N/A   Clear
2:53 AM 64.9 °F - 57.9 °F 78% 30.01 in 10.0 mi East 4.6 mph - N/A   Clear
3:53 AM 64.9 °F - 57.9 °F 78% 30.00 in 10.0 mi ESE 3.5 mph - N/A   Clear
4:53 AM 64.0 °F - 55.9 °F 75% 30.01 in 10.0 mi ESE 4.6 mph - N/A   Clear
5:53 AM 63.0 °F - 55.9 °F 78% 30.01 in 10.0 mi East 3.5 mph - N/A   Clear
6:53 AM 63.0 °F - 57.0 °F 81% 30.03 in 10.0 mi ESE 4.6 mph - N/A   Clear
7:53 AM 64.0 °F - 57.9 °F 80% 30.04 in 10.0 mi East 4.6 mph - N/A   Clear
8:53 AM 69.1 °F - 57.9 °F 68% 30.07 in 10.0 mi East 6.9 mph - N/A   Clear
9:53 AM 73.0 °F - 60.1 °F 64% 30.07 in 10.0 mi ESE 6.9 mph - N/A   Clear
10:53 AM 77.0 °F - 63.0 °F 62% 30.07 in 10.0 mi SE 10.4 mph - N/A   Clear
11:53 AM 80.1 °F 80.7 °F 59.0 °F 48% 30.06 in 10.0 mi SE 11.5 mph - N/A   Partly Cloudy
12:53 PM 82.0 °F 82.4 °F 60.1 °F 47% 30.04 in 10.0 mi SE 11.5 mph 20.7 mph N/A   Partly Cloudy
1:53 PM 82.0 °F 83.1 °F 63.0 °F 52% 30.02 in 10.0 mi SW 15.0 mph - N/A   Scattered Clouds
2:53 PM 82.0 °F 83.1 °F 63.0 °F 52% 30.00 in 10.0 mi SSW 15.0 mph - N/A   Scattered Clouds
3:53 PM 80.1 °F 81.5 °F 63.0 °F 56% 29.99 in 10.0 mi SW 18.4 mph - N/A   Scattered Clouds
4:53 PM 79.0 °F - 64.0 °F 60% 29.99 in 10.0 mi SSW 12.7 mph - N/A   Clear
5:53 PM 79.0 °F - 63.0 °F 58% 30.00 in 10.0 mi SSW 13.8 mph - N/A   Clear
6:53 PM 77.0 °F - 63.0 °F 62% 30.00 in 10.0 mi SSW 11.5 mph - N/A   Clear
7:53 PM 75.9 °F - 64.9 °F 69% 30.01 in 10.0 mi South 9.2 mph - N/A   Clear
8:53 PM 73.9 °F - 66.0 °F 76% 30.01 in 10.0 mi South 5.8 mph - N/A   Clear
9:53 PM 73.0 °F - 64.9 °F 76% 30.01 in 10.0 mi SE 4.6 mph - N/A   Clear
10:53 PM 73.0 °F - 64.9 °F 76% 30.03 in 10.0 mi Calm Calm - N/A   Clear
11:53 PM 71.1 °F - 64.9 °F 81% 30.02 in 10.0 mi East 3.5 mph - N/A   Clear